TimeCST,TemperatureF,Dew PointF,Humidity,Sea Level PressureIn,VisibilityMPH,Wind Direction,Wind SpeedMPH,Gust SpeedMPH,PrecipitationIn,Events,Conditions,WindDirDegrees,DateUTC
12:54 AM,42.1,39.9,92,-9999,5.0,East,9.2,-,0.01,,Overcast,80,2012-12-09 06:54:00
1:54 AM,42.1,39.9,92,-9999,5.0,East,10.4,-,N/A,,Overcast,100,2012-12-09 07:54:00
2:45 AM,42.8,39.2,87,-9999,7.0,ESE,9.2,-,N/A,,Overcast,110,2012-12-09 08:45:00
2:54 AM,42.1,39.9,92,-9999,6.0,ESE,6.9,-,N/A,,Overcast,110,2012-12-09 08:54:00
3:32 AM,42.8,39.2,87,-9999,5.0,ESE,6.9,-,N/A,,Overcast,110,2012-12-09 09:32:00
3:54 AM,42.1,41.0,96,-9999,5.0,ESE,8.1,-,N/A,,Overcast,110,2012-12-09 09:54:00
4:54 AM,42.1,41.0,96,-9999,3.0,SE,6.9,-,N/A,,Overcast,130,2012-12-09 10:54:00
5:54 AM,43.0,41.0,93,-9999,3.0,SSE,5.8,-,N/A,,Overcast,150,2012-12-09 11:54:00
6:10 AM,42.8,41.0,93,-9999,2.5,SE,4.6,-,N/A,,Overcast,140,2012-12-09 12:10:00
6:54 AM,43.0,42.1,97,-9999,2.0,Calm,Calm,-,N/A,,Overcast,0,2012-12-09 12:54:00
7:33 AM,42.8,42.8,100,-9999,1.2,Calm,Calm,-,N/A,,Overcast,0,2012-12-09 13:33:00
7:54 AM,43.0,42.1,97,-9999,1.0,East,3.5,-,N/A,,Overcast,100,2012-12-09 13:54:00
8:03 AM,42.8,42.8,100,-9999,0.8,SSE,3.5,-,N/A,,Overcast,150,2012-12-09 14:03:00
8:20 AM,42.8,42.8,100,-9999,1.0,SSE,3.5,-,N/A,,Overcast,150,2012-12-09 14:20:00
8:43 AM,44.6,42.8,93,-9999,2.5,Calm,Calm,-,N/A,,Overcast,0,2012-12-09 14:43:00
8:54 AM,44.1,43.0,96,-9999,3.0,Calm,Calm,-,N/A,,Overcast,0,2012-12-09 14:54:00
9:54 AM,45.0,43.0,93,29.86,4.0,West,5.8,-,N/A,,Overcast,270,2012-12-09 15:54:00
10:23 AM,44.6,44.6,100,29.85,2.5,West,6.9,-,N/A,Rain,Light Rain,280,2012-12-09 16:23:00
10:52 AM,46.4,44.6,93,29.86,3.0,WNW,10.4,-,0.00,,Overcast,290,2012-12-09 16:52:00
10:54 AM,46.0,44.1,93,29.86,4.0,WNW,10.4,-,0.00,,Overcast,290,2012-12-09 16:54:00
11:54 AM,45.0,42.1,90,29.86,5.0,WNW,11.5,-,N/A,,Overcast,300,2012-12-09 17:54:00
12:07 PM,44.6,42.8,93,29.84,5.0,NW,10.4,-,N/A,,Overcast,310,2012-12-09 18:07:00
12:54 PM,44.1,41.0,89,29.84,6.0,NW,10.4,-,N/A,,Overcast,320,2012-12-09 18:54:00
1:10 PM,44.6,41.0,87,29.82,8.0,NW,6.9,-,N/A,,Overcast,320,2012-12-09 19:10:00
1:54 PM,45.0,41.0,86,29.82,8.0,WNW,6.9,-,N/A,,Overcast,300,2012-12-09 19:54:00
2:15 PM,44.6,41.0,87,29.82,10.0,WNW,10.4,-,N/A,,Overcast,290,2012-12-09 20:15:00
2:54 PM,45.0,39.9,82,29.84,10.0,WNW,11.5,-,N/A,,Overcast,300,2012-12-09 20:54:00
3:54 PM,44.1,39.0,82,29.86,10.0,NW,13.8,-,N/A,,Overcast,310,2012-12-09 21:54:00
4:27 PM,44.6,37.4,76,29.85,10.0,NW,16.1,-,N/A,,Overcast,310,2012-12-09 22:27:00
4:54 PM,43.0,37.9,82,29.87,10.0,NW,13.8,20.7,N/A,,Overcast,310,2012-12-09 22:54:00
5:54 PM,42.1,35.1,76,29.89,10.0,NW,16.1,23.0,N/A,,Overcast,310,2012-12-09 23:54:00
6:54 PM,41.0,33.1,73,29.92,10.0,WNW,13.8,-,N/A,,Overcast,290,2012-12-10 00:54:00
7:47 PM,35.6,30.2,81,29.93,10.0,WNW,10.4,-,N/A,,Scattered Clouds,300,2012-12-10 01:47:00
7:54 PM,36.0,28.9,76,29.94,10.0,WNW,12.7,20.7,N/A,,Scattered Clouds,300,2012-12-10 01:54:00
8:07 PM,35.6,28.4,75,29.93,10.0,WNW,20.7,25.3,N/A,,Mostly Cloudy,300,2012-12-10 02:07:00
8:14 PM,35.6,26.6,70,29.93,10.0,WNW,17.3,25.3,N/A,,Scattered Clouds,300,2012-12-10 02:14:00
8:54 PM,30.9,21.0,67,29.96,10.0,NW,16.1,27.6,N/A,,Scattered Clouds,310,2012-12-10 02:54:00
9:54 PM,28.0,18.0,66,29.98,10.0,WNW,11.5,20.7,N/A,,Clear,290,2012-12-10 03:54:00
10:42 PM,28.4,19.4,69,29.97,10.0,WNW,10.4,-,N/A,,Mostly Cloudy,290,2012-12-10 04:42:00
10:54 PM,27.0,18.0,69,29.99,10.0,WNW,17.3,24.2,N/A,,Overcast,300,2012-12-10 04:54:00
11:16 PM,26.6,17.6,69,29.97,10.0,WNW,19.6,25.3,N/A,,Scattered Clouds,300,2012-12-10 05:16:00
11:54 PM,25.0,17.1,72,29.99,10.0,NW,17.3,-,N/A,,Clear,310,2012-12-10 05:54:00